RH
84 88 89 86 78 71 66 70 72 70 71 79 78 76 60 51 33 41 52 19 25 22 25 17 23 16 20 21 18 17 26 29 22 19 18 27 38 62 61 62 70 79 85 96 99
86 93 97 96 88 84 76 63 51 53 72 79 76 75 64 56 61 57 20 25 28 28 19 15 23 23 25 21 19 22 28 22 18 16 17 35 45 63 58 64 84 87 94 100 96
85 90 92 93 93 91 89 84 70 54 59 80 79 78 64 54 74 36 25 23 25 24 17 17 23 25 22 17 18 18 23 16 15 16 19 56 57 50 52 56 69 85 94 94 97
82 80 83 91 95 96 93 90 83 72 55 63 77 80 68 64 22 29 22 24 24 20 15 22 23 15 16 17 16 17 17 16 14 16 20 40 58 76 65 64 67 85 88 91 93
80 82 80 80 88 92 93 88 84 82 69 53 69 90 81 76 58 16 21 24 22 16 21 24 25 17 17 16 21 21 17 15 15 20 47 49 66 86 90 86 85 84 87 89 88
73 71 77 79 79 81 83 82 79 77 75 61 64 98 98 87 15 22 28 25 20 17 19 25 27 17 17 22 23 22 24 21 16 16 54 75 85 68 86 84 90 83 94 92 90
75 74 71 71 77 77 75 77 76 74 65 56 62 98 82 77 11 38 40 32 29 20 19 17 20 20 19 22 22 22 22 21 18 17 35 43 49 69 83 84 86 91 94 96 89
71 69 68 70 70 76 75 73 72 62 54 44 70 99 86 26 18 25 15 22 17 27 19 16 17 19 19 20 25 24 24 25 18 30 32 30 44 59 82 80 86 91 88 94 96
74 73 67 65 68 70 71 72 58 39 50 52 95 97 90 37 44 26 25 30 23 23 24 19 17 20 20 27 33 30 34 29 26 23 37 36 45 50 71 73 81 80 87 93 96
77 76 77 69 64 62 74 69 25 43 56 95 91 84 64 27 27 25 24 19 25 27 27 22 26 27 32 34 41 35 32 27 29 35 38 51 47 59 66 68 69 80 69 88 90
82 77 75 74 68 61 79 69 56 76 80 82 72 62 34 26 32 25 22 23 21 27 34 25 34 41 33 32 27 28 30 30 23 27 39 50 48 57 71 77 74 74 70 70 86
83 82 81 72 68 64 86 88 70 64 73 47 56 58 51 43 48 35 25 25 30 41 31 30 38 30 28 28 29 29 30 29 22 23 29 52 53 52 67 72 78 63 69 70 78
80 81 82 76 70 63 84 75 56 72 88 51 42 45 46 42 54 41 27 24 34 42 36 35 31 25 29 29 30 29 31 29 22 21 26 51 54 54 47 61 56 59 53 63 79
78 78 82 78 66 84 83 72 64 74 88 44 35 31 29 24 33 19 20 21 30 39 39 33 25 27 30 30 26 34 26 23 21 28 33 28 44 70 53 55 53 55 51 66 73
81 79 82 80 63 78 72 60 65 74 23 13 23 18 26 21 20 24 17 24 28 38 36 41 34 32 32 28 26 31 27 24 23 28 29 30 36 33 52 55 52 56 48 56 64
83 84 83 86 89 66 63 75 78 87 72 33 20 24 26 22 21 22 24 23 23 35 34 34 25 27 28 25 25 22 20 24 29 36 47 34 38 44 63 45 41 46 42 55 62
83 84 85 82 76 62 62 88 98 95 21 13 25 29 28 26 24 24 29 32 36 43 42 37 35 28 25 28 24 24 30 44 47 55 58 39 46 44 30 37 40 43 43 41 59
85 81 85 86 68 70 70 98 99 45 29 20 22 18 31 30 27 26 33 38 31 31 39 38 50 30 24 27 28 29 32 54 54 70 47 49 48 38 27 29 31 32 37 39 44
87 94 97 81 75 80 95 98 72 50 35 25 16 18 21 21 34 32 38 35 33 30 41 46 40 25 22 21 23 28 34 30 40 57 66 55 46 34 30 28 29 31 34 37 41
100 99 95 79 78 84 99 88 66 44 36 42 41 22 25 27 36 46 43 34 33 30 26 34 44 28 22 21 22 23 23 35 51 55 65 58 52 44 33 25 24 25 38 37 40
100 99 86 83 83 96 96 85 58 43 43 47 47 49 32 34 32 32 37 39 38 33 26 29 34 35 29 32 29 27 30 34 40 60 64 66 57 45 35 29 24 23 22 30 37
96 100 86 88 98 88 88 70 55 54 46 48 48 46 40 39 40 33 38 36 55 49 56 46 37 42 33 23 24 24 25 32 49 53 63 71 46 32 30 35 25 22 17 25 27
98 97 96 79 94 92 70 67 62 61 53 51 50 46 36 39 46 41 45 58 58 60 73 67 70 54 42 31 28 30 26 25 40 59 62 71 52 30 32 29 26 17 18 23 34
99 99 99 94 74 72 74 68 68 56 62 60 60 54 48 48 43 50 50 50 54 66 78 73 74 66 60 38 32 33 27 26 30 61 50 56 40 36 32 34 28 23 24 24 28
99 97 91 97 94 83 69 65 69 69 60 57 66 59 58 62 49 49 44 63 54 75 71 79 94 82 69 50 30 28 30 33 33 37 47 40 47 34 33 34 32 30 25 23 25
100 98 94 81 80 88 77 75 68 64 57 62 70 48 52 61 52 58 48 47 66 73 71 80 94 88 78 52 38 31 26 30 29 34 37 33 37 34 29 31 31 29 26 24 24
91 92 84 80 92 96 86 74 66 60 56 50 51 56 53 46 43 52 61 68 67 74 88 85 94 98 89 64 48 50 32 26 34 31 31 43 38 30 31 31 34 29 26 25 26
Wind_Speed
16 15 16 17 19 20 21 22 24 24 24 24 25 28 30 32 38 29 8 8 1 9 3 4 4 4 3 3 3 4 1 5 5 4 5 3 4 3 3 5 2 2 3 1 5
17 16 16 17 19 19 19 20 21 22 22 22 23 28 30 33 33 20 9 9 5 7 5 8 2 3 3 3 1 4 3 7 8 4 2 4 5 6 3 2 3 2 2 4 4
17 17 18 17 18 20 21 22 22 22 22 22 22 26 29 28 7 7 4 10 9 8 7 5 5 2 5 2 3 4 6 11 13 10 4 6 4 3 7 2 3 5 3 2 2
17 19 21 20 18 20 22 23 23 23 23 22 21 24 26 8 6 2 3 7 9 8 7 3 3 3 2 3 3 2 14 10 8 6 2 7 6 5 3 3 6 7 7 6 2
18 19 20 21 20 21 22 24 24 24 23 22 20 20 14 3 11 16 16 11 9 8 8 4 2 2 3 4 6 4 7 7 6 6 4 8 4 7 4 5 8 9 9 9 7
20 21 19 20 22 22 26 28 28 26 25 21 18 16 3 6 11 8 11 10 8 11 6 7 6 4 5 4 2 5 8 7 7 3 8 9 4 3 6 6 7 8 8 7 8
20 20 20 21 22 24 27 29 31 30 27 22 16 10 8 19 7 4 5 7 7 12 5 15 8 5 2 6 2 7 6 9 7 4 5 13 4 3 10 9 9 9 10 9 10
22 21 21 22 22 24 26 30 33 31 27 15 9 5 8 22 21 25 23 26 22 19 22 16 14 5 3 1 8 5 5 2 6 3 4 2 4 5 12 12 9 8 9 8 10
23 21 20 22 22 24 27 33 36 29 22 6 3 4 11 11 10 18 23 11 9 18 22 18 6 4 2 3 4 2 5 5 11 8 6 3 3 9 11 11 11 9 7 8 6
21 21 21 22 23 23 28 36 29 12 3 4 3 3 8 5 7 11 9 21 6 4 3 6 2 3 3 3 6 5 4 4 7 5 3 5 6 6 10 11 12 10 7 9 10
22 20 20 21 22 22 25 16 5 1 1 8 8 7 12 7 15 7 8 11 4 4 7 3 4 8 11 10 8 5 7 10 14 10 6 8 5 11 9 7 8 9 9 9 12
21 20 19 19 21 19 17 2 6 5 10 14 19 23 33 14 9 12 4 7 6 9 6 3 14 10 9 8 8 9 10 17 10 4 5 6 8 3 9 8 11 13 13 12 10
20 19 17 17 20 16 11 13 15 20 5 8 16 14 13 15 15 18 5 6 5 6 9 12 8 14 10 11 10 13 10 13 9 3 3 7 5 5 6 7 5 13 15 14 17
19 16 15 14 13 8 6 7 26 14 4 8 7 9 13 12 9 26 14 7 6 14 8 8 12 12 8 11 11 11 13 10 7 3 4 5 5 5 7 6 9 9 16 17 18
17 16 12 11 12 6 9 26 30 2 5 6 6 5 8 16 9 8 19 6 14 10 8 9 7 12 16 19 11 14 15 9 5 4 2 5 2 7 4 8 9 10 16 20 22
18 15 12 14 16 20 20 25 8 2 9 6 4 7 9 9 3 4 8 4 3 6 9 9 5 6 8 10 10 10 3 3 3 2 1 5 5 4 5 12 9 10 18 19 22
17 17 15 19 4 8 16 10 2 7 4 4 2 6 6 8 4 2 7 11 8 7 13 12 20 15 7 7 13 5 5 2 3 2 6 5 3 7 4 8 16 18 19 20 22
17 17 18 24 20 14 9 3 11 3 11 4 6 9 1 4 5 4 6 5 10 4 4 12 6 17 12 17 6 8 9 6 6 3 5 3 5 6 7 4 8 13 18 20 17
16 17 17 26 20 6 1 8 6 5 6 7 13 6 4 1 5 9 8 8 7 14 7 6 8 8 15 11 8 6 5 8 5 2 2 4 6 7 8 8 8 10 19 21 18
17 11 13 23 18 9 4 19 7 6 4 9 3 2 3 5 4 6 2 4 7 10 14 5 6 6 16 5 12 13 5 2 1 6 4 3 4 5 8 9 2 2 12 15 15
17 4 12 25 18 4 11 12 10 12 9 3 6 4 3 5 6 3 4 6 2 3 17 9 10 8 5 5 15 2 4 1 5 5 6 2 5 8 11 7 4 5 12 16 12
7 5 20 30 8 6 19 12 4 9 8 12 5 5 9 4 3 3 3 5 4 2 4 5 7 12 23 17 10 7 11 11 6 4 3 5 9 6 7 9 5 7 9 8 10
4 3 20 29 12 19 15 16 18 3 6 3 7 10 2 4 3 5 6 2 5 4 4 6 4 4 7 9 5 8 5 10 5 4 9 7 5 5 5 6 8 4 5 7 8
3 5 4 10 6 18 20 21 20 11 21 18 12 8 5 3 6 7 2 3 2 5 8 7 5 5 11 7 5 5 11 10 11 6 5 7 7 5 5 7 5 4 6 9 9
6 5 5 9 18 14 15 10 24 19 12 10 6 19 9 5 5 7 4 2 2 2 4 4 6 12 17 14 18 19 9 9 14 7 9 7 9 10 10 11 11 10 7 6 8
5 5 4 1 14 22 20 23 24 17 12 13 15 4 17 20 9 8 7 5 5 2 3 2 2 10 10 13 16 20 20 16 15 10 7 8 8 8 14 9 7 9 10 10 9
19 7 3 10 11 17 31 34 16 17 10 24 14 15 13 7 9 7 6 6 5 7 3 5 3 5 6 16 13 11 27 19 6 7 6 8 8 8 9 10 12 14 14 14 11
Wind_Direction
334 328 323 319 320 319 317 315 317 316 315 317 324 326 327 330 322 322 253 238 155 190 211 222 216 222 222 265 174 125 46 263 252 278 261 197 132 334 135 105 68 336 17 87 137
326 326 330 329 327 326 329 329 329 331 323 318 325 325 328 333 324 285 287 196 197 203 213 202 241 130 298 237 172 121 141 246 207 270 236 52 119 162 157 126 80 8 117 132 123
318 322 317 324 328 323 325 327 331 335 332 325 325 325 328 330 305 254 287 186 203 226 228 202 268 160 203 183 221 186 218 261 275 232 153 117 84 118 131 89 169 210 128 98 54
307 315 311 319 322 322 322 321 325 329 334 331 328 330 330 327 277 321 61 197 207 218 210 227 245 194 268 244 180 276 267 242 261 234 169 147 128 69 21 141 143 148 139 124 152
308 305 308 315 315 318 318 318 320 324 330 332 329 334 345 331 253 242 286 258 221 195 205 198 292 152 222 249 322 217 294 291 247 77 104 113 107 134 126 135 133 152 161 154 161
308 303 309 309 310 312 313 317 319 319 321 328 326 338 310 267 262 261 272 232 224 197 203 185 217 185 270 252 338 285 281 279 282 250 156 122 169 84 187 170 159 163 134 144 146
314 310 307 305 305 305 310 310 311 314 317 319 318 324 261 250 255 111 180 207 253 227 212 221 235 189 247 322 183 290 320 333 296 279 130 129 112 231 161 175 167 148 149 146 157
311 314 315 310 305 312 308 307 307 307 312 316 299 281 252 265 291 278 255 263 261 246 239 253 264 252 217 280 351 330 328 321 283 110 126 135 237 218 170 167 163 160 156 164 171
304 311 321 319 316 311 311 307 304 304 301 284 261 201 263 295 260 274 238 219 238 241 240 259 260 199 12 75 354 332 250 265 301 211 143 152 190 219 184 176 174 165 172 177 172
300 305 310 318 324 310 312 311 307 297 178 150 218 291 257 263 305 290 231 210 202 203 284 209 84 176 52 108 225 208 235 289 265 226 133 179 198 191 186 180 183 170 176 185 176
291 299 306 309 316 318 322 338 354 42 271 201 194 252 293 306 321 316 203 169 195 162 186 203 186 205 207 214 235 265 263 264 273 240 152 214 218 179 184 190 190 174 183 196 197
287 292 297 304 312 314 306 277 269 21 295 258 249 248 258 273 304 295 291 164 159 202 148 213 235 222 203 224 241 256 270 281 282 215 146 179 258 118 178 212 197 183 192 199 182
286 287 293 302 309 301 279 267 311 316 264 251 230 238 230 209 229 259 219 183 180 172 201 204 217 201 212 240 246 256 251 262 239 256 46 108 319 252 196 178 210 208 201 192 182
281 281 283 297 300 319 264 325 335 318 292 272 224 242 209 191 231 221 198 174 214 200 200 226 239 245 233 237 231 262 254 251 266 128 229 146 249 278 225 222 210 224 191 191 183
276 273 260 259 293 309 292 321 332 151 302 243 214 197 179 174 146 204 191 157 206 198 163 226 177 203 231 235 230 249 243 241 227 199 139 306 111 271 165 238 231 208 199 190 187
265 261 244 247 255 268 313 325 320 102 245 278 211 158 131 218 260 101 155 125 187 210 238 223 262 194 215 237 220 246 189 272 360 101 317 241 160 257 184 222 223 218 203 188 190
256 249 230 233 233 272 308 327 176 219 295 258 270 163 164 172 255 115 156 179 184 170 225 243 249 259 258 282 267 198 104 270 306 325 226 242 234 232 239 240 216 200 208 197 192
248 241 232 235 244 272 330 234 218 225 243 10 342 12 359 117 255 220 154 185 217 204 175 215 280 228 226 213 221 211 168 164 211 198 250 296 246 247 226 197 189 226 210 209 193
245 237 225 235 229 235 257 229 235 151 267 283 300 310 292 253 203 195 217 219 201 196 190 184 239 258 215 222 178 232 171 190 160 353 121 235 285 310 283 268 205 225 205 212 203
234 206 210 226 209 175 234 232 234 233 319 16 323 293 341 8 51 51 223 261 218 188 204 237 267 236 258 256 242 207 196 129 37 186 235 236 252 232 295 293 42 229 209 210 203
222 205 194 206 174 185 223 222 229 265 300 267 251 317 339 353 22 30 243 307 343 306 217 199 233 258 309 237 235 226 200 157 146 149 187 208 252 220 233 224 217 234 230 223 196
223 211 177 166 194 207 227 210 242 278 282 239 325 274 239 295 291 282 248 302 34 15 14 325 226 227 244 249 262 235 222 188 188 206 228 173 245 272 243 243 201 264 227 221 229
209 161 180 166 208 217 225 233 245 269 247 269 233 233 249 174 235 242 230 156 84 74 71 343 323 261 271 260 239 224 224 218 149 126 195 181 249 248 245 234 242 129 203 213 209
164 177 177 203 236 214 217 228 226 221 250 258 279 313 318 179 201 255 301 290 357 98 162 124 286 245 253 278 228 230 226 217 195 181 190 218 220 232 239 241 276 198 195 195 194
179 221 201 205 210 209 202 201 221 222 211 221 258 238 257 285 197 243 218 248 262 50 53 78 279 326 304 280 264 249 241 221 208 200 195 208 203 217 212 213 238 213 200 197 213
190 191 205 73 186 206 218 222 223 211 216 213 232 245 219 238 239 299 324 293 202 352 124 136 267 350 304 284 262 247 238 251 229 207 216 225 235 222 225 220 222 216 234 199 197
214 199 216 203 182 192 215 227 217 220 229 233 240 224 247 237 220 236 236 248 221 161 135 146 165 56 281 330 295 264 235 229 242 221 179 213 220 235 244 226 213 219 218 215 225